Location: Risskov
(56.1972°N, 10.2480°E)
Time: 15:46:56
(UTC+00:00)

ISS - Visible Passes

Search period start: 27 November 2022 00:00
Search period end: 07 December 2022 00:00
Orbit: 411 x 421 km, 51.6° (Epoch: 27 November)

Date Brightness Start Highest point End Pass type
(mag) Time Alt. Az. Time Alt. Az. Time Alt. Az.
27 Nov -2.7 16:51:58 10° WSW 16:55:04 36° S 16:56:20 26° SE visible
27 Nov -0.8 18:28:25 10° WSW 18:29:13 15° WSW 18:29:13 15° WSW visible
28 Nov -2.5 16:03:28 10° SW 16:06:31 34° S 16:09:35 10° ESE visible
28 Nov -2.4 17:39:47 10° WSW 17:42:30 33° SSW 17:42:30 33° SSW visible
29 Nov -2.6 16:51:10 10° WSW 16:54:17 37° S 16:55:48 23° SE visible
29 Nov -0.7 18:27:54 10° WSW 18:28:42 14° WSW 18:28:42 14° WSW visible
30 Nov -2.6 16:02:34 10° WSW 16:05:41 37° S 16:08:48 10° ESE visible
30 Nov -2.0 17:39:07 10° WSW 17:41:57 26° SSW 17:42:01 26° SSW visible
01 Dec -2.2 16:50:23 10° WSW 16:53:22 30° SSW 16:55:24 16° SE visible
01 Dec -0.6 18:27:46 10° WSW 18:28:17 11° SW 18:28:17 11° SW visible
02 Dec -2.3 16:01:41 10° WSW 16:04:45 34° S 16:07:48 10° ESE visible
02 Dec -1.3 17:38:36 10° WSW 17:40:52 17° SSW 17:41:44 16° S visible
03 Dec -1.5 16:49:38 10° WSW 16:52:17 22° SSW 16:54:55 10° SSE visible
04 Dec -1.7 16:00:47 10° WSW 16:03:39 27° SSW 16:06:31 10° SE visible
05 Dec -0.8 16:49:13 10° WSW 16:51:00 14° SSW 16:52:47 10° S visible
06 Dec -0.9 16:00:01 10° WSW 16:02:22 18° SSW 16:04:44 10° SSE visible
